CW5078 Weather Reports


Display with metric or nautical units.
time (UTC)temp
F
wind
direction
speed
MPH
gust
MPH
rain 1hr
in
rain 24hr
in
rain mn
in
humidity
%
barometer
mb
20171211184800 75 273 2.0 9.0 0.00 0.00 0.00 18 1018.9
20171211184300 74 210 2.0 8.0 0.00 0.00 0.00 22 1019.0
20171211183800 74 227 3.0 8.0 0.00 0.00 0.00 21 1019.1
20171211182300 73 224 3.0 7.0 0.00 0.00 0.00 23 1019.6
20171211181800 73 233 2.0 9.0 0.00 0.00 0.00 24 1019.8
20171211181300 72 183 2.0 3.0 0.00 0.00 0.00 24 1019.8
20171211175800 72 193 5.0 7.0 0.00 0.00 0.00 27 1020.2
20171211175300 71 192 2.0 8.0 0.00 0.00 0.00 27 1020.4
20171211174800 70 223 2.0 6.0 0.00 0.00 0.00 27 1020.6
20171211174301 70 247 3.0 5.0 0.00 0.00 0.00 28 1020.8
20171211173800 70 198 4.0 6.0 0.00 0.00 0.00 29 1020.8
20171211173300 69 210 1.0 3.0 0.00 0.00 0.00 31 1021.0
20171211172759 69 230 3.0 6.0 0.00 0.00 0.00 29 1021.1
20171211172300 68 234 1.0 3.0 0.00 0.00 0.00 32 1021.3
20171211171800 67 206 2.0 5.0 0.00 0.00 0.00 34 1021.4
20171211170800 66 156 3.0 3.0 0.00 0.00 0.00 33 1021.6
20171211170300 65 145 1.0 3.0 0.00 0.00 0.00 34 1021.7
20171211165300 64 142 1.0 3.0 0.00 0.00 0.00 35 1021.9
20171211164800 63 194 1.0 2.0 0.00 0.00 0.00 37 1022.0
20171211164300 63 194 1.0 3.0 0.00 0.00 0.00 37 1022.1
20171211163800 62 207 3.0 5.0 0.00 0.00 0.00 40 1022.2
20171211162301 60 195 2.0 3.0 0.00 0.00 0.00 41 1022.6
20171211161800 60 194 3.0 3.0 0.00 0.00 0.00 42 1022.7
20171211161300 59 205 1.0 3.0 0.00 0.00 0.00 43 1022.9
20171211160300 57 278 1.0 3.0 0.00 0.00 0.00 44 1023.2
20171211154800 55 252 2.0 3.0 0.00 0.00 0.00 47 1023.4
20171211153800 54 245 1.0 3.0 0.00 0.00 0.00 51 1023.3
20171211153300 53 279 1.0 3.0 0.00 0.00 0.00 52 1023.4
20171211152801 52 222 2.0 5.0 0.00 0.00 0.00 52 1023.5
20171211152300 51 273 2.0 3.0 0.00 0.00 0.00 54 1023.5
20171211151300 50 256 2.0 6.0 0.00 0.00 0.00 56 1023.4
20171211150800 49 261 1.0 2.0 0.00 0.00 0.00 57 1023.3
20171211150301 49 263 1.0 2.0 0.00 0.00 0.00 60 1023.3
20171211145800 48 271 0.0 0.0 0.00 0.00 0.00 62 1023.4
20171211144800 45 251 1.0 3.0 0.00 0.00 0.00 70 1023.4
20171211144300 39 251 1.0 2.0 0.00 0.00 0.00 86 1023.4
20171211143301 36 230 1.0 3.0 0.00 0.00 0.00 91 1023.5
20171211142301 35 224 0.0 0.0 0.00 0.00 0.00 91 1023.7
20171211141801 34 224 0.0 0.0 0.00 0.00 0.00 91 1023.6
20171211141300 34 224 0.0 0.0 0.00 0.00 0.00 91 1023.6
20171211140801 34 224 0.0 0.0 0.00 0.00 0.00 90 1023.6
20171211135300 33 224 0.0 0.0 0.00 0.00 0.00 89 1023.5
20171211134800 33 224 0.0 0.0 0.00 0.00 0.00 89 1023.5
20171211134300 33 224 0.0 0.0 0.00 0.00 0.00 89 1023.5
20171211133801 33 224 0.0 0.0 0.00 0.00 0.00 88 1023.3
20171211133300 33 224 0.0 0.0 0.00 0.00 0.00 88 1023.3
20171211132800 33 224 0.0 0.0 0.00 0.00 0.00 88 1023.3
20171211131801 33 224 0.0 0.0 0.00 0.00 0.00 87 1023.3
20171211131301 33 224 0.0 0.0 0.00 0.00 0.00 87 1023.2
20171211130801 33 224 0.0 0.0 0.00 0.00 0.00 87 1023.1
20171211125300 33 224 0.0 0.0 0.00 0.00 0.00 87 1023.0
20171211123801 34 224 0.0 0.0 0.00 0.00 0.00 87 1023.0
20171211123300 34 224 0.0 0.0 0.00 0.00 0.00 87 1023.1
20171211122301 34 224 0.0 0.0 0.00 0.00 0.00 87 1023.0
20171211120800 34 224 0.0 0.0 0.00 0.00 0.00 86 1023.0
20171211120301 34 224 0.0 0.0 0.00 0.00 0.00 86 1023.0
20171211113300 35 224 0.0 0.0 0.00 0.00 0.00 85 1022.9
20171211111800 35 224 0.0 0.0 0.00 0.00 0.00 84 1023.0
20171211111302 35 224 0.0 0.0 0.00 0.00 0.00 85 1023.1
20171211110301 35 224 0.0 0.0 0.00 0.00 0.00 84 1023.0
20171211105801 35 224 0.0 0.0 0.00 0.00 0.00 84 1023.1
20171211105301 35 224 0.0 0.0 0.00 0.00 0.00 84 1023.2
20171211102801 36 224 0.0 0.0 0.00 0.00 0.00 83 1023.4
20171211101801 36 224 0.0 0.0 0.00 0.00 0.00 83 1023.5
20171211101301 36 224 0.0 1.0 0.00 0.00 0.00 82 1023.5
20171211100800 36 224 0.0 2.0 0.00 0.00 0.00 82 1023.5
20171211100301 36 194 0.0 0.0 0.00 0.00 0.00 82 1023.6
20171211095301 37 194 0.0 0.0 0.00 0.00 0.00 82 1023.6
20171211094801 37 194 0.0 0.0 0.00 0.00 0.00 81 1023.5
20171211094301 37 194 0.0 0.0 0.00 0.00 0.00 81 1023.5
20171211093800 37 194 0.0 0.0 0.00 0.00 0.00 80 1023.5
20171211092301 37 194 0.0 0.0 0.00 0.00 0.00 79 1023.7
20171211091803 38 194 0.0 0.0 0.00 0.00 0.00 78 1023.7
20171211091301 38 194 0.0 0.0 0.00 0.00 0.00 78 1023.7
20171211090801 38 194 0.0 0.0 0.00 0.00 0.00 77 1023.6
20171211090302 38 194 0.0 0.0 0.00 0.00 0.00 76 1023.5
20171211085801 38 194 0.0 0.0 0.00 0.00 0.00 76 1023.5
20171211084801 39 194 0.0 0.0 0.00 0.00 0.00 75 1023.4
20171211084301 39 194 0.0 0.0 0.00 0.00 0.00 74 1023.3
20171211083801 39 194 0.0 0.0 0.00 0.00 0.00 74 1023.3
20171211082801 40 194 0.0 0.0 0.00 0.00 0.00 72 1023.3
20171211081304 40 194 0.0 0.0 0.00 0.00 0.00 71 1023.3
20171211080801 41 194 0.0 0.0 0.00 0.00 0.00 70 1023.3
20171211074802 42 194 0.0 0.0 0.00 0.00 0.00 68 1023.4
20171211073801 42 194 0.0 0.0 0.00 0.00 0.00 67 1023.6
20171211073303 42 194 0.0 0.0 0.00 0.00 0.00 67 1023.7
20171211072802 42 194 0.0 0.0 0.00 0.00 0.00 66 1023.7
20171211072305 43 194 0.0 0.0 0.00 0.00 0.00 66 1023.7
20171211070801 43 194 0.0 0.0 0.00 0.00 0.00 66 1023.8
20171211065801 43 194 0.0 0.0 0.00 0.00 0.00 66 1023.7
20171211065301 43 194 0.0 1.0 0.00 0.00 0.00 66 1023.8
20171211064802 43 194 0.0 1.0 0.00 0.00 0.00 65 1023.8
20171211064301 43 195 0.0 2.0 0.00 0.00 0.00 65 1023.9
20171211062801 44 200 0.0 0.0 0.00 0.00 0.00 64 1023.9
20171211062302 44 200 0.0 1.0 0.00 0.00 0.00 63 1024.0
20171211061802 45 200 0.0 1.0 0.00 0.00 0.00 63 1024.0
20171211061302 45 200 1.0 2.0 0.00 0.00 0.00 62 1024.0
20171211060813 45 200 0.0 2.0 0.00 0.00 0.00 62 1024.0
20171211060302 45 200 0.0 0.0 0.00 0.00 0.00 62 1024.0
20171211055801 45 200 0.0 1.0 0.00 0.00 0.00 62 1023.9
20171211055302 45 200 0.0 1.0 0.00 0.00 0.00 61 1023.9
20171211054802 46 200 0.0 2.0 0.00 0.00 0.00 61 1023.8
20171211054301 46 200 1.0 3.0 0.00 0.00 0.00 60 1023.8
20171211053801 46 201 1.0 3.0 0.00 0.00 0.00 59 1023.8
20171211053301 46 227 1.0 3.0 0.00 0.00 0.00 59 1023.9
20171211052801 46 215 1.0 3.0 0.00 0.00 0.00 60 1023.9
20171211052302 46 177 1.0 3.0 0.00 0.00 0.00 59 1023.9
20171211050802 46 202 1.0 2.0 0.00 0.00 0.00 59 1023.8
20171211050301 46 213 0.0 3.0 0.00 0.00 0.00 59 1023.9
20171211045802 47 219 1.0 2.0 0.00 0.00 0.00 58 1023.9
20171211044802 47 201 0.0 2.0 0.00 0.00 0.00 57 1023.8
20171211043801 47 208 1.0 2.0 0.00 0.00 0.00 57 1023.9
20171211043302 47 209 1.0 3.0 0.00 0.00 0.00 57 1024.0
20171211042801 47 253 0.0 3.0 0.00 0.00 0.00 57 1024.0
20171211042302 46 201 0.0 2.0 0.00 0.00 0.00 58 1024.0
20171211041802 46 202 0.0 2.0 0.00 0.00 0.00 59 1024.0
20171211041302 46 213 1.0 3.0 0.00 0.00 0.00 59 1023.9
20171211035801 46 272 0.0 2.0 0.00 0.00 0.00 60 1024.1
20171211035302 45 272 0.0 1.0 0.00 0.00 0.00 61 1024.1
20171211032802 41 200 0.0 0.0 0.00 0.00 0.00 71 1024.3
20171211031302 41 200 0.0 0.0 0.00 0.00 0.00 70 1024.2
20171211030802 41 200 0.0 0.0 0.00 0.00 0.00 70 1024.3
20171211025801 42 200 0.0 0.0 0.00 0.00 0.00 68 1024.3
20171211025302 42 200 0.0 0.0 0.00 0.00 0.00 66 1024.3
20171211024301 43 200 0.0 0.0 0.00 0.00 0.00 66 1024.5
20171211023801 43 200 0.0 0.0 0.00 0.00 0.00 66 1024.5
20171211023302 43 200 0.0 0.0 0.00 0.00 0.00 65 1024.5
20171211022802 44 200 0.0 0.0 0.00 0.00 0.00 64 1024.5
20171211022302 44 200 0.0 0.0 0.00 0.00 0.00 64 1024.6
20171211021302 44 200 0.0 0.0 0.00 0.00 0.00 64 1024.5
20171211020302 44 200 0.0 0.0 0.00 0.00 0.00 62 1024.5
20171211015302 45 200 0.0 0.0 0.00 0.00 0.00 60 1024.5
20171211014802 45 200 0.0 0.0 0.00 0.00 0.00 60 1024.5
20171211014302 46 200 0.0 0.0 0.00 0.00 0.00 58 1024.5
20171211013802 46 200 0.0 0.0 0.00 0.00 0.00 57 1024.4
20171211013301 47 200 0.0 0.0 0.00 0.00 0.00 57 1024.4
20171211012802 48 200 0.0 0.0 0.00 0.00 0.00 56 1024.5
20171211012302 48 200 0.0 0.0 0.00 0.00 0.00 55 1024.5
20171211011802 48 200 0.0 0.0 0.00 0.00 0.00 53 1024.5
20171211011302 48 200 0.0 0.0 0.00 0.00 0.00 54 1024.4
20171211010302 49 200 0.0 0.0 0.00 0.00 0.00 51 1024.4
20171211005802 49 200 0.0 0.0 0.00 0.00 0.00 50 1024.4
20171211005302 49 200 0.0 0.0 0.00 0.00 0.00 51 1024.4
20171211004802 49 200 0.0 0.0 0.00 0.00 0.00 51 1024.4
20171211004302 49 200 0.0 0.0 0.00 0.00 0.00 51 1024.4
20171211003802 50 200 0.0 0.0 0.00 0.00 0.00 49 1024.3
20171211003302 50 200 0.0 0.0 0.00 0.00 0.00 49 1024.3
20171211002302 50 200 0.0 0.0 0.00 0.00 0.00 51 1024.3
20171211001802 50 200 0.0 0.0 0.00 0.00 0.00 51 1024.3
20171211001302 50 200 0.0 0.0 0.00 0.00 0.00 49 1024.2
20171211000302 51 200 0.0 0.0 0.00 0.00 0.00 47 1024.2
20171210235803 52 200 0.0 0.0 0.00 0.00 0.00 46 1024.3
20171210235303 52 200 0.0 0.0 0.00 0.00 0.00 46 1024.2
20171210234302 54 200 0.0 0.0 0.00 0.00 0.00 43 1024.3
20171210233802 54 200 0.0 0.0 0.00 0.00 0.00 41 1024.3
20171210233302 55 200 0.0 0.0 0.00 0.00 0.00 40 1024.4
20171210232802 56 200 0.0 0.0 0.00 0.00 0.00 40 1024.4
20171210232302 57 200 0.0 0.0 0.00 0.00 0.00 37 1024.3
20171210231803 58 200 0.0 2.0 0.00 0.00 0.00 36 1024.3
20171210231302 59 200 0.0 0.0 0.00 0.00 0.00 34 1024.4
20171210230802 59 200 0.0 0.0 0.00 0.00 0.00 34 1024.4
20171210225803 60 238 1.0 3.0 0.00 0.00 0.00 33 1024.4
20171210224802 61 218 1.0 3.0 0.00 0.00 0.00 32 1024.4
20171210224302 62 328 1.0 3.0 0.00 0.00 0.00 31 1024.3
20171210223802 62 225 2.0 6.0 0.00 0.00 0.00 31 1024.2
20171210223302 62 217 4.0 8.0 0.00 0.00 0.00 30 1024.3
20171210222802 62 268 1.0 7.0 0.00 0.00 0.00 31 1024.4
20171210222302 63 278 2.0 7.0 0.00 0.00 0.00 29 1024.2
20171210221802 63 302 4.0 9.0 0.00 0.00 0.00 29 1024.2
20171210221303 63 308 3.0 10.0 0.00 0.00 0.00 29 1024.1
20171210220803 63 216 4.0 10.0 0.00 0.00 0.00 29 1024.2
20171210220302 63 156 2.0 9.0 0.00 0.00 0.00 29 1024.2
20171210215302 64 242 1.0 5.0 0.00 0.00 0.00 29 1024.1
20171210213303 64 214 3.0 12.0 0.00 0.00 0.00 29 1024.3
20171210212802 64 282 3.0 8.0 0.00 0.00 0.00 29 1024.4
20171210210803 64 265 4.0 8.0 0.00 0.00 0.00 28 1024.4
20171210205803 64 270 5.0 12.0 0.00 0.00 0.00 28 1024.5
20171210205303 64 248 4.0 10.0 0.00 0.00 0.00 28 1024.6
20171210204303 64 210 5.0 10.0 0.00 0.00 0.00 29 1024.7
20171210203803 64 238 3.0 12.0 0.00 0.00 0.00 29 1024.8
20171210203303 64 232 3.0 9.0 0.00 0.00 0.00 29 1024.8
20171210202803 64 320 5.0 10.0 0.00 0.00 0.00 28 1024.9
20171210202303 64 307 4.0 12.0 0.00 0.00 0.00 30 1024.9
20171210201302 64 242 5.0 10.0 0.00 0.00 0.00 30 1025.2
20171210200803 64 223 3.0 8.0 0.00 0.00 0.00 31 1025.1
20171210195303 64 339 5.0 12.0 0.00 0.00 0.00 30 1025.3
20171210194303 63 264 5.0 9.0 0.00 0.00 0.00 31 1025.4
20171210193803 63 299 4.0 12.0 0.00 0.00 0.00 30 1025.4
20171210191803 62 279 7.0 13.0 0.00 0.00 0.00 31 1025.6
20171210191303 63 310 5.0 10.0 0.00 0.00 0.00 31 1025.7
20171210190803 62 304 6.0 15.0 0.00 0.00 0.00 30 1025.9
20171210185803 62 214 3.0 10.0 0.00 0.00 0.00 32 1026.0